Theta_e
317 318 318 318 317 317 317 316 317 317 317 317 316 316 316 317 317 305 299 307 310 315 316 307 306 304 304 302 305 311 296 293 295 297 300 306 305 310 312 309 310 313 311 316 329
318 317 317 316 316 316 316 316 317 317 317 317 316 316 316 315 309 300 309 315 315 316 305 302 300 301 297 300 303 300 294 294 298 300 301 305 304 305 306 306 306 308 312 316 326
316 316 315 315 315 315 315 316 316 316 316 316 315 316 315 312 303 298 313 314 314 313 304 304 303 300 296 299 300 300 294 298 299 303 301 299 300 302 299 298 303 304 305 307 310
316 315 314 314 314 315 315 315 316 316 316 316 315 316 315 307 291 302 312 314 314 310 303 303 300 298 295 293 299 292 296 295 299 298 296 294 295 292 293 295 300 300 300 300 302
315 314 313 313 313 314 315 315 315 315 316 315 315 316 309 298 296 305 313 311 306 305 300 299 296 296 292 294 294 292 293 296 297 295 294 295 292 292 292 296 298 299 300 298 298
315 314 313 312 313 313 314 315 315 315 315 314 315 315 305 293 304 306 305 305 304 303 301 301 298 299 298 293 292 294 293 293 294 294 294 292 290 291 292 295 298 300 299 299 300
315 314 314 313 313 313 314 314 314 314 313 314 315 308 298 294 304 305 305 304 305 304 300 302 302 298 297 293 297 295 290 292 293 294 290 291 286 287 293 296 294 294 294 294 295
315 314 315 314 313 313 314 314 313 311 313 313 314 307 294 303 305 304 304 303 305 306 304 305 304 301 298 297 295 289 289 283 291 290 290 288 280 290 293 292 291 293 293 294 295
315 314 314 313 313 313 313 313 312 308 311 311 306 302 292 303 299 303 303 299 301 303 303 303 303 296 296 288 285 287 279 281 284 290 289 288 283 289 293 292 291 292 293 294 294
315 314 314 313 313 312 311 310 311 308 307 302 300 295 296 293 299 301 303 302 299 298 298 297 294 289 287 283 275 278 278 281 281 287 289 286 285 289 291 292 291 292 293 293 294
315 314 314 313 310 308 307 305 300 298 300 293 293 293 295 299 303 299 301 300 298 295 287 292 286 281 283 285 285 284 283 281 285 289 286 284 285 287 290 291 290 291 290 291 292
315 313 313 312 308 309 307 298 298 299 291 296 295 295 298 299 292 297 301 293 293 286 289 286 283 286 288 288 286 284 281 280 286 289 286 284 284 288 290 290 290 290 290 291 293
314 313 313 312 310 307 303 300 306 303 290 292 295 294 295 296 291 293 296 294 289 287 286 282 286 288 287 284 283 283 281 281 280 285 286 284 280 283 288 290 291 292 293 293 292
314 313 313 310 304 304 301 304 306 302 288 286 288 292 294 296 290 297 297 294 291 285 286 285 288 286 284 283 285 279 285 284 282 279 269 283 272 279 285 286 289 291 289 290 293
313 312 313 310 305 300 303 305 304 299 277 287 287 296 294 291 291 292 297 293 286 286 285 283 284 283 282 284 286 282 286 284 283 279 275 275 271 279 285 284 286 289 290 290 293
313 312 312 306 306 304 305 303 299 286 276 282 288 287 287 290 290 292 291 294 292 287 287 285 289 286 285 287 287 288 284 284 283 278 266 274 273 276 279 283 286 288 290 291 292
312 313 308 307 301 305 303 298 285 277 282 280 282 286 285 285 286 287 286 285 282 277 280 283 284 287 288 283 287 285 279 268 266 265 267 278 273 276 284 286 287 287 288 290 292
312 311 304 305 306 304 300 289 274 284 280 284 284 284 281 285 283 284 282 280 285 284 278 275 274 283 287 283 279 279 278 268 260 265 270 278 269 277 286 289 288 289 289 291 292
310 303 301 303 305 303 294 280 281 285 285 281 282 279 280 282 281 281 280 280 285 285 277 276 276 284 286 285 283 281 276 282 269 271 269 272 278 283 286 286 287 287 289 290 292
301 298 297 303 301 299 287 282 283 285 286 285 281 282 278 279 277 278 279 282 283 287 286 281 272 282 283 285 285 281 284 272 271 261 260 269 273 274 281 283 285 286 288 289 290
298 292 295 301 298 292 281 283 285 285 287 283 281 280 280 279 279 277 278 281 286 285 286 283 277 278 281 278 278 278 277 278 278 273 267 266 271 281 278 283 283 286 288 289 288
295 285 295 297 286 285 282 283 287 283 288 286 284 284 282 281 279 278 277 280 287 286 280 283 278 270 276 282 284 281 278 279 268 268 273 273 272 284 284 285 286 286 288 287 288
290 285 294 293 281 282 283 282 284 283 284 284 282 284 284 281 274 279 277 284 286 283 279 282 273 265 271 278 282 278 280 280 279 277 272 268 271 284 285 284 286 286 286 285 287
287 281 284 286 288 286 281 281 280 287 285 286 284 284 281 279 281 274 277 282 285 281 287 285 275 271 268 272 276 274 276 278 276 269 272 273 274 279 281 282 284 286 285 285 287
288 284 286 279 283 285 286 285 280 279 285 285 282 282 281 275 278 273 278 280 283 286 284 279 270 274 276 277 277 276 276 276 274 275 271 274 275 278 281 282 285 287 285 285 285
286 284 286 285 286 284 285 283 281 282 282 281 281 282 282 276 279 275 279 279 279 282 280 281 267 270 265 273 275 273 275 275 275 275 275 276 275 282 284 285 286 285 284 284 283
290 290 290 287 285 283 284 284 284 284 284 286 284 282 281 283 284 283 284 283 281 280 279 278 274 265 261 271 268 265 271 274 275 277 277 274 279 282 282 285 284 283 285 282 283
Wind_Speed
9 10 10 11 11 11 12 12 13 13 14 15 17 18 17 17 18 11 10 9 11 17 19 10 2 5 4 4 7 1 4 7 13 13 14 8 14 13 5 6 5 7 5 7 12
7 10 10 10 10 10 11 11 11 12 13 14 15 15 15 13 8 12 9 14 16 17 11 10 10 9 3 4 4 5 5 7 9 8 12 13 13 14 13 14 13 11 11 8 9
9 10 11 11 11 11 10 11 12 12 13 14 14 14 14 9 6 7 15 16 17 16 10 8 7 5 5 3 4 3 6 12 12 9 10 11 14 13 14 13 13 15 14 19 17
9 10 10 10 11 10 10 10 11 13 14 15 16 16 13 6 1 7 13 14 17 12 10 9 5 2 3 2 5 4 7 9 7 8 9 11 13 13 16 17 15 18 17 17 20
7 8 8 9 9 9 10 10 11 12 13 15 15 14 7 4 4 7 8 9 9 9 10 9 10 7 4 4 6 8 7 9 9 9 10 11 11 14 16 14 12 11 11 13 16
6 7 7 7 8 8 8 9 9 10 12 14 15 18 5 1 2 6 6 4 8 10 7 8 4 4 3 3 2 6 9 12 8 10 8 10 11 10 12 14 10 7 9 9 11
6 7 8 7 7 8 9 9 9 12 12 12 12 7 7 4 1 5 7 2 3 5 5 6 6 8 5 5 5 6 7 10 5 2 5 7 9 9 3 5 8 11 11 14 15
6 7 7 9 8 9 10 11 11 11 9 7 8 5 4 2 6 8 9 0 3 2 2 1 3 4 3 6 5 4 3 6 4 5 1 4 6 9 16 13 15 17 18 15 13
6 7 7 7 8 8 10 13 12 9 9 9 4 2 4 3 2 7 6 7 6 1 2 1 3 2 4 5 4 4 4 9 9 2 8 7 17 8 17 18 17 16 17 17 16
5 7 8 7 7 10 13 13 7 10 8 5 4 3 3 4 5 7 5 5 3 8 4 2 2 3 2 6 1 6 6 7 10 10 15 15 22 16 15 19 20 19 18 18 15
6 6 8 6 6 6 8 4 3 3 6 4 4 2 2 8 2 3 5 5 4 5 3 3 2 6 8 6 6 7 9 11 13 14 15 12 24 22 16 21 22 19 12 10 9
4 6 6 3 6 10 3 3 3 2 3 3 0 1 2 4 4 5 11 5 4 3 4 1 2 7 2 2 4 9 10 10 10 6 14 15 26 25 19 16 11 17 13 11 10
4 5 4 2 6 6 4 4 1 4 4 4 2 2 3 5 4 6 10 6 4 4 5 1 4 3 3 6 8 9 8 7 10 12 11 11 14 3 12 15 12 14 17 10 2
5 3 4 3 3 1 2 2 1 2 2 4 3 2 1 2 1 3 5 4 3 3 4 3 4 2 5 8 6 7 6 10 14 10 2 8 13 4 11 9 12 16 7 7 4
7 4 5 3 3 1 3 1 2 2 3 2 3 1 2 2 3 3 2 5 5 3 2 2 1 3 4 3 2 8 10 15 16 12 6 6 4 9 20 14 10 13 9 9 7
8 7 9 2 2 3 3 1 2 4 7 2 2 2 2 3 2 2 3 3 2 3 6 6 2 1 4 6 6 10 10 19 14 2 1 9 6 15 13 10 13 9 12 7 8
11 11 8 1 1 6 3 2 4 3 3 3 3 3 0 2 2 2 2 3 4 3 2 2 8 5 2 6 4 1 7 6 7 3 8 9 10 12 15 15 21 15 8 11 10
13 13 2 2 5 4 2 3 2 3 5 1 2 3 4 4 3 1 3 4 4 6 2 2 5 7 8 4 2 3 1 3 5 4 16 14 8 8 11 16 7 9 13 13 15
19 3 4 4 5 2 2 2 7 6 6 8 2 4 6 4 2 2 6 4 3 5 1 3 3 4 6 3 2 3 3 1 3 8 6 7 10 16 15 6 8 13 12 17 16
5 5 3 5 4 3 3 6 5 1 6 3 6 6 5 6 3 3 5 4 5 2 3 4 5 1 3 1 8 5 4 4 1 5 7 8 17 14 8 7 15 11 21 20 12
4 5 3 5 2 2 5 7 5 4 7 6 5 5 5 6 6 3 4 1 4 5 2 4 1 3 1 7 6 3 3 4 5 3 5 7 17 4 5 16 9 21 20 21 14
3 4 4 2 4 3 5 7 3 5 3 3 2 4 6 7 5 4 5 4 1 7 5 2 1 5 9 6 5 3 4 4 4 8 6 6 24 16 18 7 23 18 23 14 18
5 3 3 2 8 7 2 3 2 6 6 8 8 5 4 6 2 4 2 3 5 4 4 4 3 4 9 3 1 3 5 7 6 6 18 6 17 5 13 27 23 26 16 14 24
5 5 2 2 3 9 6 6 6 8 4 5 4 5 4 3 3 5 5 5 6 4 5 4 3 7 8 5 3 8 10 9 7 7 17 20 37 38 27 25 25 19 15 20 16
4 5 5 9 12 9 13 10 10 8 5 8 5 8 8 5 6 5 5 5 6 9 5 3 6 6 15 15 15 19 23 20 20 25 15 30 26 32 28 29 23 19 18 19 23
8 6 3 3 8 18 10 11 12 6 12 7 8 13 10 8 8 9 11 6 6 8 6 5 5 2 6 7 6 15 22 23 24 23 21 28 32 27 20 20 20 21 20 17 28
2 2 3 8 8 14 14 15 17 12 8 6 16 6 14 15 4 4 3 1 4 10 10 7 3 1 7 3 8 11 12 7 6 5 10 16 21 16 20 18 21 21 13 22 24
Wind_Direction
350 349 354 360 359 356 352 348 348 345 345 344 345 344 342 329 315 42 38 332 326 323 309 305 304 331 235 240 239 19 253 253 262 271 279 342 357 339 296 257 267 285 267 266 121
1 356 350 349 347 344 342 341 341 339 338 338 340 338 335 327 297 50 354 348 340 332 323 343 343 326 230 220 183 210 225 252 263 7 359 350 343 332 334 323 314 314 318 283 150
360 349 342 339 337 337 336 334 335 334 332 333 335 335 333 316 260 25 356 345 338 322 316 301 294 306 279 2 215 290 248 286 308 13 359 329 312 321 311 290 288 295 326 324 317
348 340 334 334 333 333 333 330 331 331 329 328 331 332 328 260 4 14 355 334 320 310 348 345 334 321 311 261 50 316 276 289 338 340 331 307 300 287 280 281 294 299 303 300 298
335 332 325 325 327 327 330 327 326 324 320 319 323 322 306 165 53 338 343 337 332 328 14 359 21 339 5 345 348 250 297 339 325 310 296 293 298 282 281 279 275 281 301 294 287
326 324 317 318 319 314 314 313 312 311 310 312 320 321 238 196 299 355 324 342 8 355 46 25 19 331 283 304 280 3 308 295 289 278 299 291 307 312 277 289 298 298 277 287 293
320 318 311 311 311 313 308 306 308 307 302 303 314 310 35 79 289 331 324 117 359 20 8 24 349 316 351 295 20 276 285 267 231 203 270 6 271 224 224 357 306 292 300 293 287
313 316 322 316 319 318 311 305 307 307 301 295 304 297 54 31 322 2 351 262 352 48 347 33 327 283 314 324 238 261 271 352 159 25 286 21 271 292 331 315 298 283 278 274 269
311 318 321 324 317 319 311 301 299 295 288 287 269 247 97 146 310 347 352 337 305 280 284 238 262 26 244 307 301 236 329 328 325 216 352 350 295 281 304 289 292 287 283 280 278
301 315 317 314 323 326 310 286 281 286 235 257 257 231 61 357 345 308 358 322 307 297 210 273 264 243 63 40 148 312 315 314 302 323 321 304 280 292 296 293 283 287 287 280 274
288 309 311 310 328 341 327 263 218 195 48 43 8 313 52 343 185 339 331 297 256 227 22 73 318 54 50 24 339 305 288 287 288 297 298 285 291 290 290 285 282 277 281 291 286
259 301 310 301 319 319 269 20 47 330 313 113 274 223 42 349 294 37 330 348 308 2 349 144 45 78 27 271 272 275 276 275 271 295 315 295 292 284 275 269 283 287 278 264 256
221 291 297 274 302 294 44 72 3 311 256 130 63 320 37 335 0 355 351 304 350 306 42 286 49 90 308 310 297 281 274 296 290 318 276 341 285 276 321 285 272 285 279 274 281
200 256 253 234 280 47 65 82 357 326 346 154 177 109 184 48 264 352 343 317 223 327 349 279 92 15 304 288 276 292 357 322 305 328 273 62 291 263 258 272 288 297 340 329 303
191 192 220 230 339 279 89 143 325 267 350 74 120 45 65 313 16 150 330 269 301 327 353 80 34 357 289 264 45 250 342 300 283 277 306 255 248 270 302 301 306 326 313 306 300
187 181 145 189 266 93 139 169 265 30 255 149 96 132 201 186 176 308 244 229 313 289 223 236 136 166 286 320 255 287 293 286 276 182 279 239 165 294 303 307 309 303 309 328 330
178 167 168 149 64 147 174 212 27 174 26 239 196 190 0 121 221 285 272 214 293 331 268 302 198 146 255 286 171 142 333 323 349 345 231 325 329 252 282 297 313 300 0 339 326
164 155 188 40 133 150 222 49 154 242 187 335 152 142 211 132 181 257 253 239 223 265 301 358 305 165 161 256 342 319 314 179 273 299 297 295 240 257 306 300 314 2 341 332 316
141 140 157 155 154 196 142 148 217 206 145 158 143 180 179 153 84 230 229 285 128 211 201 330 261 96 185 261 164 99 201 354 306 248 271 241 266 307 279 296 345 332 329 309 318
135 141 121 146 162 202 93 226 222 186 121 155 194 173 173 171 139 123 199 204 178 168 57 75 296 217 111 223 236 223 16 37 302 302 299 285 294 250 302 316 316 315 318 321 315
100 138 163 140 163 167 203 226 219 206 178 184 214 159 204 159 166 179 256 233 198 152 78 68 145 277 225 197 186 160 235 199 214 206 248 296 286 206 283 301 306 322 318 319 328
130 162 155 184 147 182 198 197 204 170 182 194 233 204 174 171 170 210 211 239 53 126 163 97 256 266 241 281 343 268 231 252 148 265 240 297 269 289 267 282 334 311 313 332 320
125 100 354 311 187 197 185 248 238 161 186 188 198 202 159 166 174 184 197 319 154 153 152 158 237 320 329 25 333 208 198 226 253 286 252 260 271 260 307 315 309 310 318 314 330
122 143 132 254 301 212 151 208 212 216 191 189 167 122 125 180 176 184 204 213 158 164 113 152 234 203 223 220 21 280 269 264 275 264 272 241 276 283 297 301 307 309 326 331 316
153 192 190 177 220 209 182 175 174 177 227 186 190 197 163 167 182 196 218 156 175 185 182 171 238 224 261 276 281 271 272 273 253 251 246 273 275 285 293 300 301 318 316 321 322
145 160 171 200 179 191 201 215 187 158 169 203 216 190 191 173 185 180 172 187 181 167 184 169 273 46 278 268 276 278 272 260 258 265 259 265 271 277 288 313 311 313 328 327 319
122 42 166 162 161 182 209 203 198 142 220 189 202 164 201 215 152 90 144 148 125 156 187 168 215 18 266 336 326 293 252 239 246 210 253 270 287 317 308 315 315 324 340 320 314